Location: Newark
(48.5667°N, 7.8167°E)
Time: 12:57:57
(UTC+00:00)

ISS - Pass Details

Date: 22 September 2021
Orbit: 418 x 423 km, 51.6° (Epoch: 19 October)

Event Time Altitude Azimuth Distance (km) Brightness Sun altitude
Rises 20:27:11 0° 283° (WNW) 2,367 1.0 -28.7°
Reaches altitude 10° 20:29:20 10° 289° (WNW) 1,504 -0.1 -29.0°
Enters shadow 20:30:13 17° 294° (WNW) 1,160 -0.8 -29.1°
